DMSP 5D-3 F18 (USA 210)

Last updated on Sun Jun 21 2026 00:02:46 GMT+0000 (Coordinated Universal Time)

1 35951U 09057A 26171.39400846 .00000210 00000+0 13184-3 0 9997 2 35951 98.9038 152.1561 0009964 239.2588 120.7604 14.14898526860044
UTC large
Height (km)
Speed (km/s)
/
Latitude / Longitude
Inclination (degrees)
Orbital Period (minutes)
Azimuth
Elevation
Range (km)
Doppler Factor

Next 0 passes for location: London (51.5072 / 0.1276)

No passes found over London.
DMSP 5D-3 F18 (USA 210)